Regional Weather Roundup
Issued by NWS

Home | Current Version | Previous Version | Text Only | Print | Product List | Glossary Off
Versions: 1 2 3 4 5 6 7 8 9 10 11 12 13 14 15 16 17 18 19 20 21 22 23 24 25 26 27 28 29 30 31 32 33 34 35 36 37 38 39 40 41 42 43 44 45 46 47 48 49 50

000
ASUS43 KBIS 281001
RWRND

NORTH DAKOTA REGIONAL WEATHER ROUNDUP
NATIONAL WEATHER SERVICE BISMARCK ND
500 AM CDT SAT MAR 28 2015

NOTE: "FAIR" INDICATES FEW OR NO CLOUDS BELOW 12,000 FEET WITH NO
SIGNIFICANT WEATHER AND/OR OBSTRUCTIONS TO VISIBILITY.


NDZ001>003-009>011-017-281100-
NORTHWEST NORTH DAKOTA

CITY           SKY/WX    TMP DP  RH WIND       PRES   REMARKS
WILLISTON      CLEAR     30  29  96 N3        29.85F
MINOT          CLOUDY    27  25  92 E8        29.92F FOG     WCI  19
MINOT AFB      MOCLDY    26  26 100 SE8       29.92F WCI  17
$$

NDZ018>021-031>035-040>046-281100-
SOUTHWEST NORTH DAKOTA

CITY           SKY/WX    TMP DP  RH WIND       PRES   REMARKS
BISMARCK       CLOUDY    30  30 100 S12       29.98F FOG
DICKINSON      CLEAR     34  29  82 S12       29.88F
GARRISON         N/A     26  24  92 E6        29.93F WCI  19
HETTINGER ARPT CLEAR     33  29  85 S3        29.93F
$$

NDZ004>008-012>016-024-026-027-054-281100-
NORTHEAST NORTH DAKOTA

CITY           SKY/WX    TMP DP  RH WIND       PRES   REMARKS
GRAND FORKS    MOCLDY    22  17  81 SE8       30.09S WCI  12
DEVILS LAKE    CLOUDY    28  25  86 S13       30.00S WCI  18
$$

NDZ022-023-025-028>030-036>039-047>053-281100-
SOUTHEAST NORTH DAKOTA

CITY           SKY/WX    TMP DP  RH WIND       PRES   REMARKS
FARGO          CLEAR     27  17  66 SE12      30.11R WCI  17
JAMESTOWN      CLOUDY    29  26  89 S9        30.02F
$$




USA.gov is the U.S. government's official web portal to all federal, state and local government web resources and services.